This demonstration page uses our WeatherBlox Daily Observations layout. Learn more.

Left ArrowRight Arrow

39.51506, -84.39828

Hourly Observations for July 11, 2015

Temp ( °F °C ) Dew Point ( °F °C ) Humidity (%) Winds ( mph kmh ) Pressure ( in mb ) Visibility ( mi km ) Precip ( " mm )
12:15 am 00:15 Mostly Cloudy with Fog 66 18.8 63 17.3 91 91 N N/A 30.12 1020 1 1 N/A
12:35 am 00:35 Mostly Cloudy with Fog 67 19.5 64 18 91 91 N N/A 30.12 1020 1 1 N/A
12:55 am 00:55 Clear with Mist and Fog 64 18 62 16.5 91 91 NNE 3 6 30.12 1020 5 8 N/A
1:15 am 01:15 Clear 64 18 62 16.5 91 91 N N/A 30.12 1020 7 11 N/A
1:35 am 01:35 Clear 64 18 62 16.5 91 91 N N/A 30.12 1020 10 16 N/A
1:55 am 01:55 Clear with Mist and Fog 64 17.8 61 16.2 90 90 N N/A 30.12 1020 4 6 N/A
2:15 am 02:15 Mostly Cloudy with Mist and Fog 63 17.4 61 15.9 91 91 N N/A 30.12 1020 1 2 N/A
2:35 am 02:35 Mostly Cloudy with Mist and Fog 63 17.3 60 15.8 91 91 N 3 6 30.12 1020 1 2 N/A
2:55 am 02:55 Clear 62 16.8 60 15.3 91 91 N N/A 30.12 1020 7 11 N/A
3:15 am 03:15 Clear 63 17.2 60 15.8 92 92 N N/A 30.12 1020 7 11 N/A
3:35 am 03:35 Partly Cloudy with Mist and Fog 63 17 60 15.5 91 91 N N/A 30.12 1020 5 8 N/A
3:55 am 03:55 Mostly Cloudy 64 18 62 16.5 91 91 N N/A 30.12 1020 7 11 N/A
4:15 am 04:15 Mostly Cloudy 64 18 62 16.5 91 91 N N/A 30.12 1020 7 11 N/A
4:35 am 04:35 Partly Cloudy with Mist and Fog 64 18 62 16.5 91 91 N N/A 30.12 1020 5 8 N/A
4:55 am 04:55 Partly Cloudy with Mist and Fog 63 17 60 15.5 91 91 N N/A 30.12 1020 1 2 N/A
5:15 am 05:15 Mostly Cloudy with Mist and Fog 64 17.8 61 16.3 91 91 N N/A 30.12 1020 1 1 N/A
5:35 am 05:35 Mostly Cloudy with Mist and Fog 63 17.1 60 15.6 91 91 N N/A 30.12 1020 4 6 N/A
5:55 am 05:55 Cloudy with Mist and Fog 64 17.8 61 16.3 91 91 N N/A 30.15 1021 4 6 N/A
6:15 am 06:15 Cloudy with Mist and Fog 64 18 62 16.5 91 91 N N/A 30.15 1021 5 8 N/A
6:35 am 06:35 Cloudy with Mist and Fog 64 18 62 16.5 91 91 N N/A 30.15 1021 4 6 N/A
6:55 am 06:55 Cloudy with Mist and Fog 65 18.1 62 16.6 91 91 N N/A 30.15 1021 5 8 N/A
7:15 am 07:15 Cloudy with Mist and Fog 67 19.5 64 18 91 91 N N/A 30.15 1021 4 6 N/A
7:35 am 07:35 Cloudy with Mist and Fog 68 20 65 18.5 91 91 N N/A 30.15 1021 4 6 N/A
7:55 am 07:55 Mostly Cloudy with Mist and Fog 69 20.8 66 19.1 90 90 N N/A 30.18 1022 5 8 N/A
8:15 am 08:15 Partly Cloudy with Mist and Fog 69 20.8 66 18.7 88 88 N N/A 30.18 1022 5 8 N/A
8:35 am 08:35 Sunny 69 20.8 65 18.5 87 87 N N/A 30.18 1022 7 11 N/A
8:55 am 08:55 Sunny 69 20.8 64 17.9 84 84 N N/A 30.18 1022 10 16 N/A
9:15 am 09:15 Sunny 71 21.9 65 18.2 80 80 N N/A 30.18 1022 10 16 N/A
9:35 am 09:35 Sunny 72 22.2 65 18.3 79 79 N N/A 30.18 1022 7 11 N/A
9:55 am 09:55 Sunny 74 23.5 66 19.1 76 76 N N/A 30.18 1022 10 16 N/A
10:15 am 10:15 Sunny 74 23.6 65 18.2 72 72 N N/A 30.18 1022 10 16 N/A
10:35 am 10:35 Sunny 74 23.6 64 17.8 70 70 N N/A 30.18 1022 10 16 N/A
10:55 am 10:55 Sunny 74 23.6 63 17.2 67 67 N N/A 30.18 1022 10 16 N/A
11:15 am 11:15 Sunny 75 23.9 63 17.3 67 67 N N/A 30.18 1022 10 16 N/A
11:35 am 11:35 Sunny 77 25.1 64 17.8 64 64 N N/A 30.18 1022 10 16 N/A
11:55 am 11:55 Sunny 77 25.1 65 18.3 66 66 N N/A 30.18 1022 10 16 N/A
12:15 pm 12:15 Sunny 77 25.1 64 17.9 64 64 N N/A 30.18 1022 10 16 N/A
12:35 pm 12:35 Partly Cloudy 77 25.1 64 18 65 65 N N/A 30.18 1022 10 16 N/A
12:55 pm 12:55 Partly Cloudy 79 26.3 65 18.4 62 62 WSW 3 6 30.18 1022 10 16 N/A
1:15 pm 13:15 Partly Cloudy 80 26.5 66 18.7 62 62 W 5 7 30.18 1022 10 16 N/A
1:35 pm 13:35 Sunny 80 26.4 65 18.3 61 61 N N/A 30.18 1022 10 16 N/A
1:55 pm 13:55 Sunny 80 26.5 65 18.2 60 60 SSW 3 6 30.18 1022 10 16 N/A
2:15 pm 14:15 Sunny 80 26.5 63 17.2 57 57 W 3 6 30.18 1022 10 16 N/A
2:35 pm 14:35 Sunny 80 26.5 63 17.2 57 57 WNW 5 7 30.18 1022 10 16 N/A
2:55 pm 14:55 Sunny 80 26.5 62 16.9 56 56 WSW 6 9 30.15 1021 10 16 N/A
3:15 pm 15:15 Sunny 80 26.5 62 16.6 55 55 N N/A 30.15 1021 10 16 N/A
3:35 pm 15:35 Sunny 80 26.5 64 17.5 58 58 SW 3 6 30.15 1021 10 16 N/A
3:55 pm 15:55 Sunny 80 26.9 62 16.7 54 54 N N/A 30.15 1021 10 16 N/A
4:15 pm 16:15 Sunny 80 26.5 61 16.1 53 53 N N/A 30.15 1021 10 16 N/A
4:35 pm 16:35 Sunny 81 27.2 61 16.3 51 51 WSW 6 9 30.15 1021 10 16 N/A
4:55 pm 16:55 Sunny 81 27.2 61 16.2 51 51 W 3 6 30.12 1020 10 16 N/A
5:15 pm 17:15 Sunny 80 26.5 60 15.7 52 52 N N/A 30.12 1020 10 16 N/A
5:35 pm 17:35 Sunny 81 27.2 62 16.6 52 52 W 3 6 30.12 1020 10 16 N/A
5:55 pm 17:55 Sunny 81 27.2 61 16.2 51 51 N N/A 30.12 1020 10 16 N/A
6:15 pm 18:15 Sunny 80 26.5 61 16 53 53 N N/A 30.12 1020 10 16 N/A
6:35 pm 18:35 Sunny 80 26.5 62 16.4 54 54 WNW 5 7 30.12 1020 10 16 N/A
6:55 pm 18:55 Sunny 80 26.5 62 16.4 54 54 N N/A 30.12 1020 10 16 N/A
7:15 pm 19:15 Sunny 80 26.5 64 17.8 59 59 N N/A 30.12 1020 10 16 N/A
7:35 pm 19:35 Sunny 80 26.5 65 18.1 60 60 N N/A 30.12 1020 10 16 N/A
7:55 pm 19:55 Sunny 80 26.5 66 18.7 62 62 N N/A 30.09 1019 10 16 N/A
8:15 pm 20:15 Sunny 77 25.2 65 18.5 66 66 N N/A 30.09 1019 10 16 N/A
8:35 pm 20:35 Sunny 77 25.2 66 19.1 69 69 N N/A 30.09 1019 10 16 N/A
8:55 pm 20:55 Sunny 77 25.1 66 19 69 69 N N/A 30.09 1019 10 16 N/A
9:15 pm 21:15 Clear 74 23.6 69 20.8 84 84 N N/A 30.09 1019 10 16 N/A
9:35 pm 21:35 Clear 74 23.6 70 20.9 85 85 N N/A 30.09 1019 10 16 N/A
9:55 pm 21:55 Clear 72 22.3 68 19.9 86 86 N N/A 30.09 1019 10 16 N/A
10:15 pm 22:15 Clear 71 21.9 67 19.5 86 86 N N/A 30.09 1019 10 16 N/A
10:35 pm 22:35 Clear 71 21.6 67 19.3 87 87 N N/A 30.09 1019 10 16 N/A
10:55 pm 22:55 Clear 72 22 67 19.7 87 87 N N/A 30.09 1019 10 16 N/A
11:15 pm 23:15 Clear 69 20.8 65 18.5 87 87 N N/A 30.09 1019 10 16 N/A
11:35 pm 23:35 Partly Cloudy 69 20.8 65 18.5 87 87 N N/A 30.09 1019 7 11 N/A
11:55 pm 23:55 Partly Cloudy 70 20.9 65 18.6 87 87 N N/A 30.06 1018 10 16 N/A

Powered by AerisWeather